UAL615 KDEN-KLAX

Flight info

Callsign UAL615
Flight time N/A
Altitude 40000
Route BAYLR6 TEHRU JASSE Q90 DNERO ANJLL4
Aircraft B772/H-SDE2E3FGHIJ5LORVWXY/LB1D1

Departure

Time 2026-05-07 04:04
Airport Denver International Airport (KDEN)

Arrival

Time N/A
Airport Los Angeles International Airport (KLAX)
Time Latitude Longitude Altitude Speed Heading
2026-05-07 03:33 39.85807 -104.67465 5389 ft 0 kts 357°
2026-05-07 03:49 39.85806 -104.67465 5391 ft 2 kts 357°
2026-05-07 03:49 39.85781 -104.67463 5389 ft 4 kts 358°
2026-05-07 03:49 39.85755 -104.67465 5386 ft 4 kts 21°
2026-05-07 03:50 39.85737 -104.67484 5384 ft 4 kts 69°
2026-05-07 03:50 39.85732 -104.67511 5385 ft 0 kts 90°
2026-05-07 03:55 39.85724 -104.67471 5391 ft 11 kts 108°
2026-05-07 03:55 39.85685 -104.67338 5391 ft 17 kts 112°
2026-05-07 03:55 39.85662 -104.67191 5391 ft 17 kts 90°
2026-05-07 03:56 39.85661 -104.67036 5391 ft 17 kts 90°
2026-05-07 03:56 39.85660 -104.66882 5391 ft 17 kts 90°
2026-05-07 03:56 39.85659 -104.66731 5391 ft 15 kts 90°
2026-05-07 03:56 39.85659 -104.66629 5391 ft 8 kts 86°
2026-05-07 03:57 39.85667 -104.66552 5391 ft 9 kts 76°
2026-05-07 03:57 39.85677 -104.66474 5388 ft 10 kts 88°
2026-05-07 03:57 39.85680 -104.66382 5387 ft 10 kts 88°
2026-05-07 03:57 39.85685 -104.66290 5437 ft 10 kts 69°
2026-05-07 03:58 39.85742 -104.66240 5391 ft 11 kts 13°
2026-05-07 03:58 39.85862 -104.66234 5392 ft 24 kts
2026-05-07 03:58 39.86019 -104.66232 5388 ft 18 kts
2026-05-07 03:58 39.86144 -104.66230 5391 ft 18 kts
2026-05-07 03:59 39.86271 -104.66230 5384 ft 18 kts
2026-05-07 03:59 39.86398 -104.66229 5387 ft 18 kts
2026-05-07 03:59 39.86525 -104.66227 5390 ft 18 kts
2026-05-07 03:59 39.86559 -104.66214 5390 ft 2 kts 60°
2026-05-07 04:00 39.86521 -104.66136 5384 ft 22 kts 132°
2026-05-07 04:00 39.86498 -104.65982 5374 ft 16 kts 91°
2026-05-07 04:00 39.86498 -104.65840 5374 ft 16 kts 91°
2026-05-07 04:00 39.86496 -104.65696 5369 ft 16 kts 91°
2026-05-07 04:01 39.86494 -104.65545 5365 ft 17 kts 90°
2026-05-07 04:01 39.86494 -104.65395 5361 ft 17 kts 90°
2026-05-07 04:01 39.86493 -104.65244 5359 ft 17 kts 90°
2026-05-07 04:01 39.86492 -104.65092 5359 ft 17 kts 90°
2026-05-07 04:02 39.86492 -104.64941 5357 ft 17 kts 90°
2026-05-07 04:02 39.86490 -104.64789 5355 ft 17 kts 90°
2026-05-07 04:02 39.86490 -104.64637 5350 ft 17 kts 90°
2026-05-07 04:02 39.86488 -104.64485 5345 ft 17 kts 91°
2026-05-07 04:03 39.86486 -104.64327 5343 ft 18 kts 91°
2026-05-07 04:03 39.86484 -104.64206 5341 ft 6 kts 91°
2026-05-07 04:03 39.86468 -104.64154 5339 ft 6 kts 136°
2026-05-07 04:03 39.86425 -104.64135 5341 ft 9 kts 177°
2026-05-07 04:04 39.86320 -104.64135 5343 ft 47 kts 180°
2026-05-07 04:04 39.85667 -104.64143 5358 ft 137 kts 180°
2026-05-07 04:04 39.84495 -104.64157 5725 ft 183 kts 181°
2026-05-07 04:04 39.83224 -104.64182 7072 ft 179 kts 184°
2026-05-07 04:05 39.82003 -104.64210 8188 ft 176 kts 185°
2026-05-07 04:05 39.80701 -104.64392 8316 ft 204 kts 201°
2026-05-07 04:05 39.79348 -104.65175 8618 ft 221 kts 214°
2026-05-07 04:05 39.77963 -104.66235 8978 ft 244 kts 216°
2026-05-07 04:06 39.76580 -104.67541 9613 ft 250 kts 228°
2026-05-07 04:06 39.75387 -104.69280 9983 ft 264 kts 244°
2026-05-07 04:06 39.74879 -104.71590 10109 ft 270 kts 276°
2026-05-07 04:06 39.75489 -104.73873 10214 ft 278 kts 307°
2026-05-07 04:07 39.76630 -104.76004 10344 ft 299 kts 296°
2026-05-07 04:07 39.76977 -104.78764 10742 ft 326 kts 270°
2026-05-07 04:07 39.76849 -104.81757 11263 ft 337 kts 274°
2026-05-07 04:07 39.76999 -104.84823 12235 ft 340 kts 280°
2026-05-07 04:08 39.77283 -104.87893 13339 ft 343 kts 282°
2026-05-07 04:08 39.77442 -104.90993 14156 ft 353 kts 270°
2026-05-07 04:08 39.76842 -104.94153 14761 ft 367 kts 256°
2026-05-07 04:08 39.76044 -104.97304 15496 ft 375 kts 258°
2026-05-07 04:09 39.75300 -105.00568 16456 ft 378 kts 259°
2026-05-07 04:09 39.74546 -105.03863 17369 ft 383 kts 256°
2026-05-07 04:09 39.73562 -105.07140 18224 ft 392 kts 252°
2026-05-07 04:09 39.72441 -105.10406 18954 ft 399 kts 251°
2026-05-07 04:10 39.71288 -105.13715 19680 ft 404 kts 251°
2026-05-07 04:10 39.70141 -105.17074 20422 ft 408 kts 251°
2026-05-07 04:10 39.69022 -105.20437 21108 ft 413 kts 252°
2026-05-07 04:10 39.67888 -105.23890 21782 ft 418 kts 252°
2026-05-07 04:11 39.66740 -105.27389 22480 ft 423 kts 252°
2026-05-07 04:11 39.65576 -105.30930 23146 ft 429 kts 252°
2026-05-07 04:11 39.64393 -105.34518 23841 ft 435 kts 252°
2026-05-07 04:11 39.63193 -105.38151 24474 ft 439 kts 252°
2026-05-07 04:12 39.61985 -105.41810 25131 ft 443 kts 252°
2026-05-07 04:12 39.60767 -105.45501 25761 ft 446 kts 252°
2026-05-07 04:12 39.59554 -105.49171 26364 ft 450 kts 252°
2026-05-07 04:12 39.58309 -105.52916 26943 ft 454 kts 252°
2026-05-07 04:13 39.57047 -105.56703 27487 ft 458 kts 252°
2026-05-07 04:13 39.55777 -105.60509 28034 ft 462 kts 252°
2026-05-07 04:13 39.54541 -105.64369 28520 ft 464 kts 254°
2026-05-07 04:13 39.53416 -105.68323 28985 ft 468 kts 256°
2026-05-07 04:14 39.52341 -105.72316 29479 ft 470 kts 256°
2026-05-07 04:14 39.51281 -105.76286 29999 ft 473 kts 256°
2026-05-07 04:14 39.50193 -105.80323 30433 ft 476 kts 256°
2026-05-07 04:14 39.49083 -105.84386 30821 ft 479 kts 256°
2026-05-07 04:15 39.47950 -105.88471 31211 ft 481 kts 255°
2026-05-07 04:15 39.46809 -105.92559 31586 ft 483 kts 256°
2026-05-07 04:15 39.45662 -105.96669 31953 ft 486 kts 256°
2026-05-07 04:15 39.44507 -106.00790 32227 ft 488 kts 255°
2026-05-07 04:16 39.43357 -106.04887 32482 ft 492 kts 255°
2026-05-07 04:16 39.42190 -106.09054 32722 ft 494 kts 255°
2026-05-07 04:16 39.41010 -106.13255 32997 ft 496 kts 255°
2026-05-07 04:16 39.39829 -106.17438 33448 ft 494 kts 255°
2026-05-07 04:17 39.38650 -106.21607 33948 ft 491 kts 255°
2026-05-07 04:17 39.37492 -106.25698 34488 ft 489 kts 255°
2026-05-07 04:17 39.36324 -106.29818 34889 ft 487 kts 255°
2026-05-07 04:17 39.35161 -106.33925 35253 ft 485 kts 255°
2026-05-07 04:18 39.33996 -106.38028 35589 ft 484 kts 255°
2026-05-07 04:18 39.32837 -106.42103 35947 ft 483 kts 255°
2026-05-07 04:18 39.31681 -106.46164 36307 ft 481 kts 255°
2026-05-07 04:18 39.30527 -106.50214 36696 ft 480 kts 255°
2026-05-07 04:19 39.29376 -106.54249 37037 ft 479 kts 255°
2026-05-07 04:19 39.28224 -106.58274 37391 ft 477 kts 255°
2026-05-07 04:19 39.27074 -106.62283 37770 ft 474 kts 255°
2026-05-07 04:19 39.25946 -106.66220 38063 ft 475 kts 255°
2026-05-07 04:20 39.24797 -106.70216 38326 ft 475 kts 254°
2026-05-07 04:20 39.23389 -106.74099 38534 ft 483 kts 242°
2026-05-07 04:20 39.21460 -106.77673 38808 ft 486 kts 238°
2026-05-07 04:21 39.17303 -106.84559 39363 ft 485 kts 236°
2026-05-07 04:21 39.15221 -106.87968 39482 ft 484 kts 236°
2026-05-07 04:21 39.13163 -106.91386 39706 ft 483 kts 237°
2026-05-07 04:21 39.11121 -106.94831 39932 ft 482 kts 237°
2026-05-07 04:22 39.09100 -106.98279 40083 ft 482 kts 237°
2026-05-07 04:22 39.07087 -107.01739 40136 ft 482 kts 238°
2026-05-07 04:22 39.03076 -107.08652 40165 ft 481 kts 237°
2026-05-07 04:23 38.99093 -107.15500 40173 ft 481 kts 237°
2026-05-07 04:23 38.95085 -107.22369 40167 ft 480 kts 237°
2026-05-07 04:24 38.91070 -107.29231 40167 ft 480 kts 237°
2026-05-07 04:24 38.87049 -107.36087 40170 ft 481 kts 237°
2026-05-07 04:25 38.83017 -107.42946 40160 ft 481 kts 237°
2026-05-07 04:25 38.78991 -107.49781 40170 ft 480 kts 237°
2026-05-07 04:26 38.74961 -107.56609 40166 ft 480 kts 237°
2026-05-07 04:26 38.70934 -107.63417 40173 ft 479 kts 237°
2026-05-07 04:27 38.66932 -107.70169 40172 ft 479 kts 237°
2026-05-07 04:27 38.62902 -107.76954 40159 ft 479 kts 237°
2026-05-07 04:28 38.58859 -107.83746 40277 ft 479 kts 237°
2026-05-07 04:28 38.54823 -107.90514 40275 ft 479 kts 237°
2026-05-07 04:29 38.50772 -107.97291 40274 ft 479 kts 236°
2026-05-07 04:29 38.46720 -108.04056 40270 ft 480 kts 236°
2026-05-07 04:30 38.42690 -108.10770 40242 ft 480 kts 236°
2026-05-07 04:30 38.38625 -108.17529 40218 ft 480 kts 236°
2026-05-07 04:31 38.34551 -108.24287 40177 ft 480 kts 236°
2026-05-07 04:31 38.30480 -108.31029 40171 ft 480 kts 236°
2026-05-07 04:32 38.26429 -108.37723 40194 ft 480 kts 236°
2026-05-07 04:32 38.22348 -108.44453 40140 ft 480 kts 236°
2026-05-07 04:33 38.18270 -108.51164 40167 ft 479 kts 236°
2026-05-07 04:33 38.14185 -108.57871 40156 ft 479 kts 236°
2026-05-07 04:34 38.10096 -108.64571 40152 ft 479 kts 236°
2026-05-07 04:34 38.06016 -108.71244 40148 ft 478 kts 236°
2026-05-07 04:35 38.01959 -108.77867 40132 ft 478 kts 235°
2026-05-07 04:35 37.97871 -108.84526 40148 ft 478 kts 235°
2026-05-07 04:36 37.93776 -108.91182 40146 ft 479 kts 235°
2026-05-07 04:36 37.89671 -108.97842 40144 ft 480 kts 235°
2026-05-07 04:37 37.85555 -109.04505 40146 ft 480 kts 235°
2026-05-07 04:37 37.81458 -109.11124 40150 ft 480 kts 235°
2026-05-07 04:38 37.77329 -109.17782 40148 ft 481 kts 235°
2026-05-07 04:38 37.73196 -109.24432 40175 ft 481 kts 235°
2026-05-07 04:39 37.69055 -109.31084 40202 ft 482 kts 235°
2026-05-07 04:39 37.64907 -109.37729 40230 ft 482 kts 235°
2026-05-07 04:40 37.60748 -109.44381 40237 ft 482 kts 235°
2026-05-07 04:40 37.56588 -109.51022 40231 ft 483 kts 234°
2026-05-07 04:41 37.52423 -109.57656 40235 ft 483 kts 234°
2026-05-07 04:41 37.48252 -109.64287 40207 ft 483 kts 234°
2026-05-07 04:42 37.44077 -109.70912 40081 ft 483 kts 234°
2026-05-07 04:42 37.39924 -109.77489 40090 ft 482 kts 234°
2026-05-07 04:43 37.35747 -109.84090 40071 ft 482 kts 234°
2026-05-07 04:43 37.31567 -109.90681 40086 ft 482 kts 234°
2026-05-07 04:44 37.27379 -109.97274 40074 ft 483 kts 234°
2026-05-07 04:44 37.23184 -110.03864 40065 ft 483 kts 234°
2026-05-07 04:45 37.18983 -110.10451 40057 ft 483 kts 234°
2026-05-07 04:45 37.14776 -110.17034 40053 ft 483 kts 234°
2026-05-07 04:46 37.10569 -110.23603 40050 ft 483 kts 234°
2026-05-07 04:46 37.06354 -110.30173 40056 ft 484 kts 233°
2026-05-07 04:47 37.02126 -110.36750 40050 ft 485 kts 233°
2026-05-07 04:47 36.97922 -110.43276 40052 ft 485 kts 233°
2026-05-07 04:48 36.93683 -110.49844 40033 ft 485 kts 233°
2026-05-07 04:48 36.89438 -110.56408 40046 ft 485 kts 233°
2026-05-07 04:49 36.85182 -110.62976 40034 ft 486 kts 233°
2026-05-07 04:49 36.80926 -110.69532 40034 ft 486 kts 233°
2026-05-07 04:50 36.76656 -110.76096 40015 ft 487 kts 233°
2026-05-07 04:50 36.72385 -110.82649 40009 ft 487 kts 233°
2026-05-07 04:51 36.68107 -110.89199 40023 ft 487 kts 233°
2026-05-07 04:51 36.63818 -110.95755 40022 ft 488 kts 233°
2026-05-07 04:52 36.59549 -111.02266 40007 ft 489 kts 233°
2026-05-07 04:52 36.55243 -111.08821 40021 ft 489 kts 233°
2026-05-07 04:53 36.51631 -111.14310 39998 ft 489 kts 233°
2026-05-07 04:53 36.47314 -111.20859 40019 ft 489 kts 233°
2026-05-07 04:54 36.43025 -111.27353 40011 ft 490 kts 232°
2026-05-07 04:54 36.38696 -111.33895 40017 ft 490 kts 232°
2026-05-07 04:55 36.34368 -111.40422 40015 ft 490 kts 232°
2026-05-07 04:55 36.30031 -111.46950 40021 ft 490 kts 232°
2026-05-07 04:56 36.25697 -111.53464 40029 ft 489 kts 232°
2026-05-07 04:56 36.21363 -111.59962 40029 ft 489 kts 232°
2026-05-07 04:57 36.17056 -111.66410 40024 ft 489 kts 232°
2026-05-07 04:57 36.12712 -111.72903 40033 ft 489 kts 232°
2026-05-07 04:58 36.08500 -111.79490 40063 ft 487 kts 238°
2026-05-07 04:58 36.05242 -111.86799 40116 ft 485 kts 249°
2026-05-07 04:59 36.02775 -111.94549 40173 ft 485 kts 251°
2026-05-07 04:59 36.00343 -112.02325 40217 ft 485 kts 251°
2026-05-07 05:00 35.97876 -112.10086 40224 ft 486 kts 251°
2026-05-07 05:00 35.95385 -112.17840 40221 ft 486 kts 250°
2026-05-07 05:01 35.92896 -112.25548 40228 ft 486 kts 250°
2026-05-07 05:01 35.90389 -112.33295 40183 ft 486 kts 250°
2026-05-07 05:02 35.87875 -112.41049 40146 ft 486 kts 250°
2026-05-07 05:02 35.85353 -112.48807 40019 ft 487 kts 250°
2026-05-07 05:03 35.82829 -112.56551 40040 ft 487 kts 250°
2026-05-07 05:03 35.80300 -112.64291 40035 ft 487 kts 250°
2026-05-07 05:04 35.77777 -112.71992 40027 ft 488 kts 250°
2026-05-07 05:04 35.75216 -112.79789 40021 ft 488 kts 250°
2026-05-07 05:05 35.72683 -112.87480 40026 ft 488 kts 250°
2026-05-07 05:05 35.70121 -112.95242 40026 ft 489 kts 250°
2026-05-07 05:06 35.67556 -113.02992 40010 ft 489 kts 250°
2026-05-07 05:06 35.64984 -113.10744 39994 ft 490 kts 250°
2026-05-07 05:07 35.62419 -113.18456 40001 ft 491 kts 250°
2026-05-07 05:07 35.59824 -113.26236 39993 ft 492 kts 250°
2026-05-07 05:08 35.57220 -113.34011 39990 ft 493 kts 249°
2026-05-07 05:08 35.54600 -113.41816 39981 ft 494 kts 249°
2026-05-07 05:09 35.51977 -113.49617 39965 ft 495 kts 249°
2026-05-07 05:09 35.49346 -113.57421 39969 ft 495 kts 249°
2026-05-07 05:10 35.46721 -113.65186 39988 ft 495 kts 249°
2026-05-07 05:10 35.44077 -113.72991 40019 ft 495 kts 249°
2026-05-07 05:11 35.41424 -113.80800 40048 ft 495 kts 249°
2026-05-07 05:11 35.38774 -113.88579 40070 ft 495 kts 249°
2026-05-07 05:12 35.36136 -113.96307 40101 ft 494 kts 249°
2026-05-07 05:12 35.33480 -114.04063 40092 ft 493 kts 249°
2026-05-07 05:13 35.30820 -114.11816 40058 ft 493 kts 249°
2026-05-07 05:13 35.28157 -114.19557 40014 ft 493 kts 249°
2026-05-07 05:14 35.25490 -114.27292 39990 ft 493 kts 249°
2026-05-07 05:14 35.22817 -114.35024 39944 ft 493 kts 249°
2026-05-07 05:15 35.20138 -114.42750 39919 ft 494 kts 249°
2026-05-07 05:15 35.17451 -114.50486 39923 ft 494 kts 249°
2026-05-07 05:16 35.14773 -114.58181 39965 ft 495 kts 249°
2026-05-07 05:16 35.12069 -114.65934 39962 ft 496 kts 249°
2026-05-07 05:17 35.09375 -114.73688 39954 ft 496 kts 249°
2026-05-07 05:17 35.06677 -114.81444 39960 ft 496 kts 249°
2026-05-07 05:18 35.03971 -114.89199 39965 ft 497 kts 249°
2026-05-07 05:18 35.00958 -114.96830 39948 ft 500 kts 244°
2026-05-07 05:19 34.97621 -115.04287 39963 ft 501 kts 243°
2026-05-07 05:19 34.94292 -115.11772 39979 ft 502 kts 244°
2026-05-07 05:20 34.91013 -115.19285 39993 ft 502 kts 244°
2026-05-07 05:20 34.87742 -115.26808 40009 ft 503 kts 244°
2026-05-07 05:21 34.82829 -115.38054 39996 ft 504 kts 244°
2026-05-07 05:22 34.79532 -115.45577 39998 ft 504 kts 244°
2026-05-07 05:22 34.76523 -115.53274 40004 ft 503 kts 249°
2026-05-07 05:23 34.73747 -115.61084 40005 ft 502 kts 249°
2026-05-07 05:23 34.70932 -115.68861 39994 ft 503 kts 249°
2026-05-07 05:24 34.68064 -115.76618 40005 ft 503 kts 248°
2026-05-07 05:24 34.65203 -115.84328 40003 ft 503 kts 248°
2026-05-07 05:25 34.62327 -115.92080 40003 ft 503 kts 249°
2026-05-07 05:25 34.59465 -115.99838 39994 ft 502 kts 249°
2026-05-07 05:26 34.56616 -116.07566 40008 ft 502 kts 249°
2026-05-07 05:26 34.53758 -116.15288 40007 ft 501 kts 248°
2026-05-07 05:27 34.50902 -116.22985 40014 ft 500 kts 248°
2026-05-07 05:27 34.48063 -116.30617 40003 ft 498 kts 248°
2026-05-07 05:28 34.45213 -116.38263 40013 ft 497 kts 248°
2026-05-07 05:28 34.42364 -116.45888 40013 ft 496 kts 248°
2026-05-07 05:29 34.39401 -116.53443 40017 ft 497 kts 245°
2026-05-07 05:29 34.36258 -116.60902 40005 ft 497 kts 245°
2026-05-07 05:30 34.33145 -116.68419 40032 ft 502 kts 246°
2026-05-07 05:30 34.30086 -116.76010 40035 ft 502 kts 246°
2026-05-07 05:31 34.27046 -116.83600 40026 ft 501 kts 246°
2026-05-07 05:31 34.24015 -116.91120 40045 ft 500 kts 246°
2026-05-07 05:32 34.20964 -116.98697 40039 ft 500 kts 249°
2026-05-07 05:32 34.18730 -117.06603 40046 ft 497 kts 257°
2026-05-07 05:33 34.16731 -117.14598 40070 ft 498 kts 255°
2026-05-07 05:33 34.14536 -117.22552 40129 ft 500 kts 254°
2026-05-07 05:34 34.12327 -117.30509 40141 ft 501 kts 255°
2026-05-07 05:34 34.10144 -117.38447 40128 ft 501 kts 255°
2026-05-07 05:35 34.08138 -117.46519 40093 ft 499 kts 257°
2026-05-07 05:35 34.07169 -117.50497 39841 ft 491 kts 258°
2026-05-07 05:35 34.06395 -117.54504 39127 ft 491 kts 263°
2026-05-07 05:35 34.05801 -117.58581 38112 ft 497 kts 265°
2026-05-07 05:36 34.05273 -117.62719 37144 ft 501 kts 265°
2026-05-07 05:36 34.04739 -117.66889 36288 ft 503 kts 265°
2026-05-07 05:36 34.04178 -117.71049 35602 ft 502 kts 264°
2026-05-07 05:36 34.03592 -117.75140 35438 ft 488 kts 264°
2026-05-07 05:37 34.03001 -117.79121 35365 ft 475 kts 263°
2026-05-07 05:37 34.02419 -117.82986 35299 ft 462 kts 264°
2026-05-07 05:37 34.01851 -117.86748 35199 ft 450 kts 264°
2026-05-07 05:37 34.01300 -117.90411 35086 ft 439 kts 264°
2026-05-07 05:38 34.00768 -117.93949 34866 ft 431 kts 264°
2026-05-07 05:38 34.00237 -117.97498 34554 ft 427 kts 264°
2026-05-07 05:38 33.99710 -118.01013 34167 ft 425 kts 264°
2026-05-07 05:38 33.99184 -118.04519 33722 ft 424 kts 264°
2026-05-07 05:39 33.98619 -118.07977 33236 ft 418 kts 265°
2026-05-07 05:39 33.98375 -118.11442 32774 ft 411 kts 276°
2026-05-07 05:39 33.98682 -118.14789 32742 ft 393 kts 288°
2026-05-07 05:39 33.99474 -118.17858 32662 ft 375 kts 299°
2026-05-07 05:40 34.00731 -118.20517 32593 ft 356 kts 313°
2026-05-07 05:40 34.02419 -118.22576 32532 ft 336 kts 330°
2026-05-07 05:40 34.03725 -118.23508 32469 ft 322 kts 342°
2026-05-07 05:40 34.06538 -118.24079 32300 ft 300 kts 11°
2026-05-07 05:41 34.07849 -118.23662 32192 ft 292 kts 26°
2026-05-07 05:41 34.09862 -118.21624 31785 ft 289 kts 56°
2026-05-07 05:41 34.10566 -118.19334 31315 ft 299 kts 79°
2026-05-07 05:41 34.10456 -118.16723 30361 ft 329 kts 101°
2026-05-07 05:42 34.09880 -118.14932 29586 ft 351 kts 114°
2026-05-07 05:42 34.08399 -118.12521 28756 ft 371 kts 131°
2026-05-07 05:42 34.06345 -118.10571 28170 ft 382 kts 146°
2026-05-07 05:42 34.03902 -118.09233 27681 ft 389 kts 160°
2026-05-07 05:43 34.01241 -118.08598 27308 ft 392 kts 174°
2026-05-07 05:43 33.98514 -118.08717 26990 ft 392 kts 188°
2026-05-07 05:43 33.95929 -118.09584 26505 ft 379 kts 204°
2026-05-07 05:43 33.93685 -118.11209 25708 ft 377 kts 221°
2026-05-07 05:44 33.91929 -118.13535 24890 ft 375 kts 239°
2026-05-07 05:44 33.90809 -118.16336 24104 ft 370 kts 257°
2026-05-07 05:44 33.90416 -118.19345 23252 ft 360 kts 275°
2026-05-07 05:44 33.90795 -118.22254 22349 ft 347 kts 294°
2026-05-07 05:45 33.91909 -118.24766 21435 ft 335 kts 314°